Location: Central Falls
(41.8900°N, 71.3929°W)
Time: 03:55:37
(UTC+00:00)

Vanguard 2 - Pass Details

Date: 09 December 2023
Orbit: 554 x 2918 km, 32.9° (Epoch: 01 March)

Event Time Altitude Azimuth Distance (km) Brightness Sun altitude
Rises 02:34:19 0° 256° (WSW) 6,744 12.7 -58.0°
Reaches altitude 10° 02:38:53 10° 253° (WSW) 5,745 12.2 -58.7°
Enters shadow 02:47:27 34° 242° (WSW) 3,947 11.0 -60.1°
Maximum altitude 02:55:58 60° 180° (S) 2,806 - -61.5°
Drops below altitude 10° 03:08:21 10° 105° (ESE) 4,301 - -63.3°
Sets 03:11:15 0° 101° (ESE) 5,019 - -63.7°
